www.cux-wetter.de
Wetterdaten: Donnerstag, 02.07.2009
Datum Zeit Temp. A. Feuchte A. Luftdruck Regen Wind Richtung Richtung Sonnenschein Solar Taupunkt Windchill Windben
02.07.2009 00:00 20,0 C 84 % 1020,5 hPa 0,0 l/m 12,0 km/h (2 Bft) NO 35 0 min 0 W/m 17,2 C 18,0 C 12,0 km/h (2 Bft)
02.07.2009 00:05 20,0 C 84 % 1020,5 hPa 0,0 l/m 9,1 km/h (2 Bft) N-NO 25 0 min 0 W/m 17,2 C 18,9 C 9,1 km/h (2 Bft)
02.07.2009 00:09 20,0 C 84 % 1020,5 hPa 0,0 l/m 8,6 km/h (2 Bft) N-NO 25 0 min 0 W/m 17,2 C 19,1 C 8,6 km/h (2 Bft)
02.07.2009 00:14 20,0 C 85 % 1020,5 hPa 0,0 l/m 9,9 km/h (2 Bft) N-NO 30 0 min 0 W/m 17,4 C 18,7 C 9,9 km/h (2 Bft)
02.07.2009 00:19 20,0 C 85 % 1020,5 hPa 0,0 l/m 6,9 km/h (2 Bft) N-NO 15 0 min 0 W/m 17,4 C 19,8 C 6,9 km/h (2 Bft)
02.07.2009 00:25 19,9 C 85 % 1020,5 hPa 0,0 l/m 10,4 km/h (2 Bft) NO 45 0 min 0 W/m 17,3 C 18,4 C 10,4 km/h (2 Bft)
02.07.2009 00:30 19,9 C 86 % 1020,5 hPa 0,0 l/m 9,8 km/h (2 Bft) N 10 0 min 0 W/m 17,5 C 18,6 C 9,8 km/h (2 Bft)
02.07.2009 00:35 19,9 C 86 % 1020,5 hPa 0,0 l/m 9,0 km/h (2 Bft) NO 35 0 min 0 W/m 17,5 C 18,9 C 9,0 km/h (2 Bft)
02.07.2009 00:40 19,8 C 85 % 1020,5 hPa 0,0 l/m 12,2 km/h (2 Bft) N-NO 30 0 min 0 W/m 17,2 C 17,7 C 12,2 km/h (2 Bft)
02.07.2009 00:44 19,8 C 86 % 1020,5 hPa 0,0 l/m 11,3 km/h (2 Bft) N-NO 30 0 min 0 W/m 17,4 C 18,0 C 11,3 km/h (2 Bft)
02.07.2009 00:49 19,8 C 86 % 1020,5 hPa 0,0 l/m 8,3 km/h (2 Bft) N-NO 25 0 min 0 W/m 17,4 C 19,0 C 8,3 km/h (2 Bft)
02.07.2009 00:54 19,8 C 86 % 1020,5 hPa 0,0 l/m 8,9 km/h (2 Bft) N-NO 25 0 min 0 W/m 17,4 C 18,8 C 8,9 km/h (2 Bft)
02.07.2009 00:59 19,7 C 86 % 1020,5 hPa 0,0 l/m 5,7 km/h (2 Bft) N 10 0 min 0 W/m 17,3 C 19,7 C 5,7 km/h (2 Bft)
02.07.2009 01:04 19,7 C 86 % 1020,5 hPa 0,0 l/m 5,2 km/h (1 Bft) NO 40 0 min 0 W/m 17,3 C 19,7 C 5,2 km/h (1 Bft)
02.07.2009 01:09 19,6 C 86 % 1020,5 hPa 0,0 l/m 5,2 km/h (1 Bft) N-NO 25 0 min 0 W/m 17,2 C 19,6 C 5,2 km/h (1 Bft)
02.07.2009 01:14 19,6 C 86 % 1020,5 hPa 0,0 l/m 6,0 km/h (2 Bft) N-NO 25 0 min 0 W/m 17,2 C 19,6 C 6,0 km/h (2 Bft)
02.07.2009 01:19 19,6 C 86 % 1020,5 hPa 0,0 l/m 9,7 km/h (2 Bft) N-NO 25 0 min 0 W/m 17,2 C 18,3 C 9,7 km/h (2 Bft)
02.07.2009 01:24 19,5 C 86 % 1020,5 hPa 0,0 l/m 10,6 km/h (2 Bft) NO 40 0 min 0 W/m 17,1 C 17,9 C 10,6 km/h (2 Bft)
02.07.2009 01:29 19,4 C 86 % 1020,5 hPa 0,0 l/m 6,6 km/h (2 Bft) N 355 0 min 0 W/m 17,0 C 19,3 C 6,6 km/h (2 Bft)
02.07.2009 01:35 19,3 C 86 % 1020,5 hPa 0,0 l/m 6,7 km/h (2 Bft) N-NO 15 0 min 0 W/m 16,9 C 19,2 C 6,7 km/h (2 Bft)
02.07.2009 01:40 19,3 C 86 % 1020,5 hPa 0,0 l/m 4,4 km/h (1 Bft) NO 45 0 min 0 W/m 16,9 C 19,3 C 4,4 km/h (1 Bft)
02.07.2009 01:45 19,2 C 86 % 1020,5 hPa 0,0 l/m 8,3 km/h (2 Bft) N 10 0 min 0 W/m 16,8 C 18,4 C 8,3 km/h (2 Bft)
02.07.2009 01:50 19,2 C 86 % 1020,5 hPa 0,0 l/m 6,9 km/h (2 Bft) NO 45 0 min 0 W/m 16,8 C 19,0 C 6,9 km/h (2 Bft)
02.07.2009 01:54 19,2 C 86 % 1020,5 hPa 0,0 l/m 6,9 km/h (2 Bft) NO 45 0 min 0 W/m 16,8 C 19,0 C 6,9 km/h (2 Bft)
02.07.2009 01:59 19,1 C 86 % 1020,5 hPa 0,0 l/m 6,1 km/h (2 Bft) N-NO 15 0 min 0 W/m 16,7 C 19,1 C 6,1 km/h (2 Bft)
02.07.2009 02:04 19,0 C 86 % 1020,5 hPa 0,0 l/m 6,1 km/h (2 Bft) N 10 0 min 0 W/m 16,6 C 19,0 C 6,1 km/h (2 Bft)
02.07.2009 02:10 19,0 C 86 % 1020,5 hPa 0,0 l/m 6,7 km/h (2 Bft) N-NO 20 0 min 0 W/m 16,6 C 18,9 C 6,7 km/h (2 Bft)
02.07.2009 02:15 18,9 C 86 % 1020,5 hPa 0,0 l/m 4,9 km/h (1 Bft) NO 40 0 min 0 W/m 16,5 C 18,9 C 4,9 km/h (1 Bft)
02.07.2009 02:19 18,9 C 86 % 1019,5 hPa 0,0 l/m 1,4 km/h (1 Bft) N-NO 30 0 min 0 W/m 16,5 C 18,9 C 1,4 km/h (1 Bft)
02.07.2009 02:24 19,0 C 86 % 1019,5 hPa 0,0 l/m 4,4 km/h (1 Bft) N 360 0 min 0 W/m 16,6 C 19,0 C 4,4 km/h (1 Bft)
02.07.2009 02:29 19,0 C 85 % 1019,5 hPa 0,0 l/m 6,7 km/h (2 Bft) N-NO 20 0 min 0 W/m 16,4 C 18,9 C 6,7 km/h (2 Bft)
02.07.2009 02:34 18,9 C 85 % 1019,5 hPa 0,0 l/m 3,3 km/h (1 Bft) N-NO 15 0 min 0 W/m 16,3 C 18,9 C 3,3 km/h (1 Bft)
02.07.2009 02:39 18,8 C 85 % 1019,5 hPa 0,0 l/m 6,3 km/h (2 Bft) N-NO 25 0 min 0 W/m 16,2 C 18,8 C 6,3 km/h (2 Bft)
02.07.2009 02:45 18,8 C 85 % 1019,5 hPa 0,0 l/m 6,8 km/h (2 Bft) NO 35 0 min 0 W/m 16,2 C 18,6 C 6,8 km/h (2 Bft)
02.07.2009 02:50 18,7 C 85 % 1019,5 hPa 0,0 l/m 6,8 km/h (2 Bft) NO 40 0 min 0 W/m 16,1 C 18,5 C 6,8 km/h (2 Bft)
02.07.2009 02:55 18,7 C 85 % 1019,5 hPa 0,0 l/m 6,6 km/h (2 Bft) N-NO 30 0 min 0 W/m 16,1 C 18,6 C 6,6 km/h (2 Bft)
02.07.2009 02:59 18,6 C 85 % 1019,5 hPa 0,0 l/m 7,3 km/h (2 Bft) N-NO 25 0 min 0 W/m 16,0 C 18,2 C 7,3 km/h (2 Bft)
02.07.2009 03:04 18,6 C 85 % 1019,5 hPa 0,0 l/m 5,5 km/h (2 Bft) N 10 0 min 0 W/m 16,0 C 18,6 C 5,5 km/h (2 Bft)
02.07.2009 03:09 18,4 C 85 % 1019,5 hPa 0,0 l/m 7,6 km/h (2 Bft) N-NO 20 0 min 0 W/m 15,8 C 17,8 C 7,6 km/h (2 Bft)
02.07.2009 03:15 18,4 C 85 % 1019,5 hPa 0,0 l/m 5,6 km/h (2 Bft) N-NO 25 0 min 0 W/m 15,8 C 18,4 C 5,6 km/h (2 Bft)
02.07.2009 03:20 18,4 C 85 % 1019,5 hPa 0,0 l/m 3,6 km/h (1 Bft) N 360 0 min 0 W/m 15,8 C 18,4 C 3,6 km/h (1 Bft)
02.07.2009 03:25 18,4 C 85 % 1019,5 hPa 0,0 l/m 2,6 km/h (1 Bft) NO 45 0 min 0 W/m 15,8 C 18,4 C 2,6 km/h (1 Bft)
02.07.2009 03:29 18,4 C 85 % 1019,5 hPa 0,0 l/m 4,5 km/h (1 Bft) NO 50 0 min 0 W/m 15,8 C 18,4 C 4,5 km/h (1 Bft)
02.07.2009 03:34 18,4 C 85 % 1019,5 hPa 0,0 l/m 0,4 km/h (0 Bft) N-NO 25 0 min 0 W/m 15,8 C 18,4 C 0,4 km/h (0 Bft)
02.07.2009 03:39 18,3 C 85 % 1019,5 hPa 0,0 l/m 0,6 km/h (0 Bft) N 10 0 min 0 W/m 15,7 C 18,3 C 0,6 km/h (0 Bft)
02.07.2009 03:44 18,2 C 85 % 1019,5 hPa 0,0 l/m 6,3 km/h (2 Bft) N-NO 15 0 min 0 W/m 15,6 C 18,2 C 6,3 km/h (2 Bft)
02.07.2009 03:49 18,1 C 85 % 1019,5 hPa 0,0 l/m 5,2 km/h (1 Bft) N 10 0 min 0 W/m 15,5 C 18,1 C 5,2 km/h (1 Bft)
02.07.2009 03:55 18,2 C 85 % 1019,5 hPa 0,0 l/m 5,7 km/h (2 Bft) N 10 0 min 0 W/m 15,6 C 18,2 C 5,7 km/h (2 Bft)
02.07.2009 04:00 18,3 C 85 % 1019,5 hPa 0,0 l/m 0,6 km/h (0 Bft) NO 35 0 min 0 W/m 15,7 C 18,3 C 0,6 km/h (0 Bft)
02.07.2009 04:04 18,3 C 85 % 1019,5 hPa 0,0 l/m 8,3 km/h (2 Bft) N-NO 15 0 min 0 W/m 15,7 C 17,4 C 8,3 km/h (2 Bft)
02.07.2009 04:09 18,2 C 85 % 1019,5 hPa 0,0 l/m 9,2 km/h (2 Bft) N-NO 15 0 min 0 W/m 15,6 C 17,0 C 9,2 km/h (2 Bft)
02.07.2009 04:14 18,1 C 85 % 1019,5 hPa 0,0 l/m 6,0 km/h (2 Bft) N 5 0 min 0 W/m 15,5 C 18,1 C 6,0 km/h (2 Bft)
02.07.2009 04:20 18,2 C 85 % 1019,5 hPa 0,0 l/m 1,5 km/h (1 Bft) N-NO 20 0 min 0 W/m 15,6 C 18,2 C 1,5 km/h (1 Bft)
02.07.2009 04:25 18,1 C 85 % 1019,5 hPa 0,0 l/m 7,2 km/h (2 Bft) NO 40 0 min 0 W/m 15,5 C 17,7 C 7,2 km/h (2 Bft)
02.07.2009 04:30 18,0 C 85 % 1019,5 hPa 0,0 l/m 4,8 km/h (1 Bft) N-NO 20 0 min 0 W/m 15,4 C 18,0 C 4,8 km/h (1 Bft)
02.07.2009 04:34 18,0 C 85 % 1019,5 hPa 0,0 l/m 4,5 km/h (1 Bft) N-NO 30 0 min 0 W/m 15,4 C 18,0 C 4,5 km/h (1 Bft)
02.07.2009 04:39 18,0 C 85 % 1019,5 hPa 0,0 l/m 7,2 km/h (2 Bft) N-NO 15 0 min 0 W/m 15,4 C 17,6 C 7,2 km/h (2 Bft)
02.07.2009 04:44 17,8 C 85 % 1019,5 hPa 0,0 l/m 9,0 km/h (2 Bft) N-NO 25 0 min 0 W/m 15,2 C 16,6 C 9,0 km/h (2 Bft)
02.07.2009 04:49 17,8 C 86 % 1019,5 hPa 0,0 l/m 8,9 km/h (2 Bft) N-NO 20 0 min 0 W/m 15,4 C 16,7 C 8,9 km/h (2 Bft)
02.07.2009 04:54 17,9 C 86 % 1019,5 hPa 0,0 l/m 8,3 km/h (2 Bft) NO 35 0 min 0 W/m 15,5 C 17,0 C 8,3 km/h (2 Bft)
02.07.2009 05:00 17,8 C 85 % 1019,5 hPa 0,0 l/m 8,4 km/h (2 Bft) N-NO 20 0 min 0 W/m 15,2 C 16,9 C 8,4 km/h (2 Bft)
02.07.2009 05:04 17,8 C 85 % 1019,5 hPa 0,0 l/m 9,0 km/h (2 Bft) N-NO 20 0 min 0 W/m 15,2 C 16,6 C 9,0 km/h (2 Bft)
02.07.2009 05:09 17,7 C 85 % 1019,5 hPa 0,0 l/m 8,3 km/h (2 Bft) N-NO 15 0 min 0 W/m 15,1 C 16,8 C 8,3 km/h (2 Bft)
02.07.2009 05:14 17,7 C 85 % 1019,5 hPa 0,0 l/m 7,9 km/h (2 Bft) N-NO 30 0 min 0 W/m 15,1 C 17,0 C 7,9 km/h (2 Bft)
02.07.2009 05:19 17,6 C 85 % 1019,5 hPa 0,0 l/m 10,3 km/h (2 Bft) N-NO 30 0 min 0 W/m 15,0 C 15,9 C 10,3 km/h (2 Bft)
02.07.2009 05:25 17,8 C 85 % 1019,5 hPa 0,0 l/m 10,5 km/h (2 Bft) N-NO 25 0 min 0 W/m 15,2 C 16,0 C 10,5 km/h (2 Bft)
02.07.2009 05:30 17,7 C 84 % 1019,5 hPa 0,0 l/m 9,0 km/h (2 Bft) N 10 0 min 0 W/m 15,0 C 16,5 C 9,0 km/h (2 Bft)
02.07.2009 05:35 17,7 C 84 % 1019,5 hPa 0,0 l/m 10,9 km/h (2 Bft) NO 35 0 min 0 W/m 15,0 C 15,8 C 10,9 km/h (2 Bft)
02.07.2009 05:39 17,6 C 84 % 1019,5 hPa 0,0 l/m 10,4 km/h (2 Bft) N 10 0 min 0 W/m 14,9 C 15,8 C 10,4 km/h (2 Bft)
02.07.2009 05:44 17,7 C 84 % 1020,5 hPa 0,0 l/m 6,9 km/h (2 Bft) N 5 0 min 0 W/m 15,0 C 17,5 C 6,9 km/h (2 Bft)
02.07.2009 05:49 17,9 C 84 % 1020,5 hPa 0,0 l/m 6,1 km/h (2 Bft) N-NO 25 0 min 0 W/m 15,2 C 17,9 C 6,1 km/h (2 Bft)
02.07.2009 05:54 18,0 C 83 % 1020,5 hPa 0,0 l/m 9,6 km/h (2 Bft) N-NO 15 0 min 0 W/m 15,1 C 16,6 C 9,6 km/h (2 Bft)
02.07.2009 05:59 18,0 C 83 % 1019,5 hPa 0,0 l/m 9,6 km/h (2 Bft) N-NO 20 0 min 0 W/m 15,1 C 16,6 C 9,6 km/h (2 Bft)
02.07.2009 06:05 17,9 C 83 % 1019,5 hPa 0,0 l/m 11,3 km/h (2 Bft) N-NO 30 0 min 0 W/m 15,0 C 15,8 C 11,3 km/h (2 Bft)
02.07.2009 06:09 17,9 C 82 % 1019,5 hPa 0,0 l/m 8,7 km/h (2 Bft) N-NO 25 0 min 0 W/m 14,8 C 16,8 C 8,7 km/h (2 Bft)
02.07.2009 06:14 17,9 C 82 % 1019,5 hPa 0,0 l/m 8,9 km/h (2 Bft) N-NO 30 0 min 0 W/m 14,8 C 16,8 C 8,9 km/h (2 Bft)
02.07.2009 06:19 18,0 C 83 % 1019,5 hPa 0,0 l/m 5,7 km/h (2 Bft) NO 40 0 min 0 W/m 15,1 C 18,0 C 5,7 km/h (2 Bft)
02.07.2009 06:25 18,0 C 83 % 1019,5 hPa 0,0 l/m 7,3 km/h (2 Bft) NO 50 0 min 0 W/m 15,1 C 17,6 C 7,3 km/h (2 Bft)
02.07.2009 06:30 18,0 C 83 % 1019,5 hPa 0,0 l/m 8,8 km/h (2 Bft) NO 50 0 min 0 W/m 15,1 C 16,9 C 8,8 km/h (2 Bft)
02.07.2009 06:35 18,1 C 83 % 1019,5 hPa 0,0 l/m 9,4 km/h (2 Bft) NO 35 0 min 0 W/m 15,2 C 16,8 C 9,4 km/h (2 Bft)
02.07.2009 06:39 18,2 C 82 % 1019,5 hPa 0,0 l/m 0,3 km/h (0 Bft) NO 35 0 min 0 W/m 15,1 C 18,2 C 0,3 km/h (0 Bft)
02.07.2009 06:44 18,4 C 82 % 1019,5 hPa 0,0 l/m 9,9 km/h (2 Bft) NO 40 0 min 0 W/m 15,3 C 16,9 C 9,9 km/h (2 Bft)
02.07.2009 06:49 18,4 C 81 % 1019,5 hPa 0,0 l/m 8,1 km/h (2 Bft) O-NO 60 0 min 0 W/m 15,1 C 17,6 C 8,1 km/h (2 Bft)
02.07.2009 06:54 18,4 C 81 % 1019,5 hPa 0,0 l/m 6,5 km/h (2 Bft) NO 40 0 min 0 W/m 15,1 C 18,4 C 6,5 km/h (2 Bft)
02.07.2009 06:59 18,4 C 81 % 1019,5 hPa 0,0 l/m 11,9 km/h (2 Bft) O-NO 65 0 min 0 W/m 15,1 C 16,2 C 11,9 km/h (2 Bft)
02.07.2009 07:05 18,4 C 81 % 1019,5 hPa 0,0 l/m 9,5 km/h (2 Bft) O-NO 75 0 min 0 W/m 15,1 C 17,1 C 9,5 km/h (2 Bft)
02.07.2009 07:09 18,5 C 80 % 1019,5 hPa 0,0 l/m 9,5 km/h (2 Bft) NO 40 0 min 0 W/m 15,0 C 17,2 C 9,5 km/h (2 Bft)
02.07.2009 07:14 18,6 C 80 % 1019,5 hPa 0,0 l/m 8,6 km/h (2 Bft) NO 50 0 min 0 W/m 15,1 C 17,6 C 8,6 km/h (2 Bft)
02.07.2009 07:19 18,6 C 80 % 1019,5 hPa 0,0 l/m 6,3 km/h (2 Bft) NO 45 0 min 0 W/m 15,1 C 18,6 C 6,3 km/h (2 Bft)
02.07.2009 07:24 18,7 C 80 % 1019,5 hPa 0,0 l/m 8,5 km/h (2 Bft) NO 45 0 min 0 W/m 15,2 C 17,8 C 8,5 km/h (2 Bft)
02.07.2009 07:30 18,8 C 80 % 1019,5 hPa 0,0 l/m 9,0 km/h (2 Bft) O-NO 60 0 min 0 W/m 15,3 C 17,7 C 9,0 km/h (2 Bft)
02.07.2009 07:35 18,9 C 80 % 1019,5 hPa 0,0 l/m 7,6 km/h (2 Bft) NO 45 0 min 0 W/m 15,4 C 18,4 C 7,6 km/h (2 Bft)
02.07.2009 07:40 18,9 C 79 % 1019,5 hPa 0,0 l/m 9,0 km/h (2 Bft) NO 45 0 min 0 W/m 15,2 C 17,8 C 9,0 km/h (2 Bft)
02.07.2009 07:44 19,0 C 79 % 1019,5 hPa 0,0 l/m 9,6 km/h (2 Bft) NO 40 0 min 0 W/m 15,3 C 17,7 C 9,6 km/h (2 Bft)
02.07.2009 07:49 19,0 C 79 % 1019,5 hPa 0,0 l/m 9,1 km/h (2 Bft) O-NO 75 0 min 0 W/m 15,3 C 17,9 C 9,1 km/h (2 Bft)
02.07.2009 07:54 19,0 C 79 % 1019,5 hPa 0,0 l/m 8,5 km/h (2 Bft) N 10 0 min 0 W/m 15,3 C 18,1 C 8,5 km/h (2 Bft)
02.07.2009 07:59 19,1 C 79 % 1019,5 hPa 0,0 l/m 10,0 km/h (2 Bft) NO 50 0 min 0 W/m 15,4 C 17,6 C 10,0 km/h (2 Bft)
02.07.2009 08:05 19,2 C 79 % 1019,5 hPa 0,0 l/m 6,9 km/h (2 Bft) O-NO 75 0 min 0 W/m 15,5 C 19,0 C 6,9 km/h (2 Bft)
02.07.2009 08:09 19,2 C 79 % 1019,5 hPa 0,0 l/m 9,2 km/h (2 Bft) NO 50 0 min 0 W/m 15,5 C 18,0 C 9,2 km/h (2 Bft)
02.07.2009 08:14 19,4 C 79 % 1019,5 hPa 0,0 l/m 10,6 km/h (2 Bft) O-NO 60 0 min 0 W/m 15,7 C 17,8 C 10,6 km/h (2 Bft)
02.07.2009 08:19 19,7 C 78 % 1019,5 hPa 0,0 l/m 9,6 km/h (2 Bft) O-NO 60 0 min 0 W/m 15,8 C 18,4 C 9,6 km/h (2 Bft)
02.07.2009 08:24 20,0 C 76 % 1019,5 hPa 0,0 l/m 8,6 km/h (2 Bft) O-NO 60 0 min 0 W/m 15,6 C 19,1 C 8,6 km/h (2 Bft)
02.07.2009 08:30 20,0 C 76 % 1019,5 hPa 0,0 l/m 10,6 km/h (2 Bft) O-NO 70 0 min 0 W/m 15,6 C 18,4 C 10,6 km/h (2 Bft)
02.07.2009 08:35 20,1 C 76 % 1019,5 hPa 0,0 l/m 10,8 km/h (2 Bft) NO 50 0 min 0 W/m 15,7 C 18,5 C 10,8 km/h (2 Bft)
02.07.2009 08:40 20,1 C 76 % 1019,5 hPa 0,0 l/m 8,8 km/h (2 Bft) NO 45 0 min 0 W/m 15,7 C 19,2 C 8,8 km/h (2 Bft)
02.07.2009 08:44 20,2 C 76 % 1019,5 hPa 0,0 l/m 10,9 km/h (2 Bft) NO 45 0 min 0 W/m 15,8 C 18,6 C 10,9 km/h (2 Bft)
02.07.2009 08:49 20,2 C 76 % 1019,5 hPa 0,0 l/m 10,0 km/h (2 Bft) NO 55 0 min 0 W/m 15,8 C 18,9 C 10,0 km/h (2 Bft)
02.07.2009 08:54 20,2 C 76 % 1019,5 hPa 0,0 l/m 7,2 km/h (2 Bft) NO 45 0 min 0 W/m 15,8 C 19,9 C 7,2 km/h (2 Bft)
02.07.2009 08:59 20,2 C 76 % 1019,5 hPa 0,0 l/m 7,4 km/h (2 Bft) NO 45 0 min 0 W/m 15,8 C 19,8 C 7,4 km/h (2 Bft)
02.07.2009 09:04 20,3 C 76 % 1019,5 hPa 0,0 l/m 7,1 km/h (2 Bft) N 5 0 min 0 W/m 15,9 C 20,0 C 7,1 km/h (2 Bft)
02.07.2009 09:09 20,4 C 76 % 1019,5 hPa 0,0 l/m 9,8 km/h (2 Bft) O-NO 70 0 min 0 W/m 16,0 C 19,1 C 9,8 km/h (2 Bft)
02.07.2009 09:14 20,5 C 76 % 1019,5 hPa 0,0 l/m 10,1 km/h (2 Bft) O-NO 75 0 min 0 W/m 16,1 C 19,2 C 10,1 km/h (2 Bft)
02.07.2009 09:19 20,5 C 76 % 1019,5 hPa 0,0 l/m 9,7 km/h (2 Bft) NO 45 0 min 0 W/m 16,1 C 19,3 C 9,7 km/h (2 Bft)
02.07.2009 09:24 20,6 C 76 % 1019,5 hPa 0,0 l/m 10,7 km/h (2 Bft) NO 40 0 min 0 W/m 16,2 C 19,1 C 10,7 km/h (2 Bft)
02.07.2009 09:30 20,6 C 76 % 1019,5 hPa 0,0 l/m 8,0 km/h (2 Bft) N 5 0 min 0 W/m 16,2 C 20,0 C 8,0 km/h (2 Bft)
02.07.2009 09:35 20,7 C 76 % 1019,5 hPa 0,0 l/m 6,1 km/h (2 Bft) N-NO 20 0 min 0 W/m 16,3 C 20,7 C 6,1 km/h (2 Bft)
02.07.2009 09:40 20,8 C 76 % 1019,5 hPa 0,0 l/m 9,2 km/h (2 Bft) NO 55 0 min 0 W/m 16,4 C 19,8 C 9,2 km/h (2 Bft)
02.07.2009 09:44 21,0 C 75 % 1019,5 hPa 0,0 l/m 9,9 km/h (2 Bft) O 80 0 min 0 W/m 16,4 C 19,8 C 9,9 km/h (2 Bft)
02.07.2009 09:49 21,2 C 76 % 1019,5 hPa 0,0 l/m 11,1 km/h (2 Bft) NO 55 0 min 0 W/m 16,8 C 19,7 C 11,1 km/h (2 Bft)
02.07.2009 09:54 22,7 C 77 % 1019,5 hPa 0,0 l/m 11,2 km/h (2 Bft) N-NO 25 0 min 0 W/m 18,5 C 21,3 C 11,2 km/h (2 Bft)
02.07.2009 09:59 24,2 C 70 % 1019,5 hPa 0,0 l/m 10,8 km/h (2 Bft) NO 35 0 min 0 W/m 18,4 C 23,1 C 10,8 km/h (2 Bft)
02.07.2009 10:04 24,7 C 70 % 1019,5 hPa 0,0 l/m 12,2 km/h (2 Bft) N-NO 25 0 min 0 W/m 18,8 C 23,4 C 12,2 km/h (2 Bft)
02.07.2009 10:09 25,8 C 66 % 1019,5 hPa 0,0 l/m 10,1 km/h (2 Bft) NO 45 0 min 0 W/m 19,0 C 25,0 C 10,1 km/h (2 Bft)
02.07.2009 10:14 26,2 C 63 % 1019,5 hPa 0,0 l/m 5,6 km/h (2 Bft) N 5 0 min 0 W/m 18,6 C 26,2 C 5,6 km/h (2 Bft)
02.07.2009 10:19 26,8 C 62 % 1019,5 hPa 0,0 l/m 6,2 km/h (2 Bft) N-NO 25 0 min 0 W/m 18,9 C 26,8 C 6,2 km/h (2 Bft)
02.07.2009 10:24 26,8 C 61 % 1019,5 hPa 0,0 l/m 10,1 km/h (2 Bft) NO 45 0 min 0 W/m 18,6 C 26,1 C 10,1 km/h (2 Bft)
02.07.2009 10:29 26,8 C 61 % 1019,5 hPa 0,0 l/m 10,0 km/h (2 Bft) NO 40 0 min 0 W/m 18,6 C 26,2 C 10,0 km/h (2 Bft)
02.07.2009 10:35 26,8 C 60 % 1019,5 hPa 0,0 l/m 10,0 km/h (2 Bft) N-NO 25 0 min 0 W/m 18,4 C 26,2 C 10,0 km/h (2 Bft)
02.07.2009 10:40 26,7 C 59 % 1019,5 hPa 0,0 l/m 12,8 km/h (3 Bft) N-NO 25 0 min 0 W/m 18,0 C 25,6 C 12,8 km/h (3 Bft)
02.07.2009 10:44 26,6 C 60 % 1019,5 hPa 0,0 l/m 12,1 km/h (2 Bft) NO 35 0 min 0 W/m 18,2 C 25,6 C 12,1 km/h (2 Bft)
02.07.2009 10:49 26,7 C 61 % 1019,5 hPa 0,0 l/m 9,7 km/h (2 Bft) NO 40 0 min 0 W/m 18,5 C 26,1 C 9,7 km/h (2 Bft)
02.07.2009 10:54 26,7 C 60 % 1019,5 hPa 0,0 l/m 9,1 km/h (2 Bft) O-NO 60 0 min 0 W/m 18,3 C 26,2 C 9,1 km/h (2 Bft)
02.07.2009 10:59 26,5 C 60 % 1019,5 hPa 0,0 l/m 13,0 km/h (3 Bft) N-NO 30 0 min 0 W/m 18,1 C 25,4 C 13,0 km/h (3 Bft)
02.07.2009 11:04 26,4 C 60 % 1019,5 hPa 0,0 l/m 13,0 km/h (3 Bft) NO 40 0 min 0 W/m 18,0 C 25,3 C 13,0 km/h (3 Bft)
02.07.2009 11:09 26,4 C 60 % 1019,5 hPa 0,0 l/m 8,3 km/h (2 Bft) NO 45 0 min 0 W/m 18,0 C 26,0 C 8,3 km/h (2 Bft)
02.07.2009 11:14 26,3 C 61 % 1019,5 hPa 0,0 l/m 3,8 km/h (1 Bft) NO 35 0 min 0 W/m 18,2 C 26,3 C 3,8 km/h (1 Bft)
02.07.2009 11:19 26,4 C 61 % 1019,5 hPa 0,0 l/m 9,2 km/h (2 Bft) NO 50 0 min 0 W/m 18,3 C 25,8 C 9,2 km/h (2 Bft)
02.07.2009 11:24 26,4 C 61 % 1019,5 hPa 0,0 l/m 8,7 km/h (2 Bft) NO 35 0 min 0 W/m 18,3 C 25,9 C 8,7 km/h (2 Bft)
02.07.2009 11:30 26,3 C 61 % 1019,5 hPa 0,0 l/m 9,6 km/h (2 Bft) NO 55 0 min 0 W/m 18,2 C 25,7 C 9,6 km/h (2 Bft)
02.07.2009 11:35 26,3 C 62 % 1019,5 hPa 0,0 l/m 9,2 km/h (2 Bft) N-NO 15 0 min 0 W/m 18,4 C 25,7 C 9,2 km/h (2 Bft)
02.07.2009 11:40 26,4 C 61 % 1019,5 hPa 0,0 l/m 9,2 km/h (2 Bft) N 10 0 min 0 W/m 18,3 C 25,8 C 9,2 km/h (2 Bft)
02.07.2009 11:44 26,4 C 61 % 1019,5 hPa 0,0 l/m 11,0 km/h (2 Bft) NO 55 0 min 0 W/m 18,3 C 25,5 C 11,0 km/h (2 Bft)
02.07.2009 11:49 26,6 C 61 % 1019,5 hPa 0,0 l/m 11,5 km/h (2 Bft) NO 45 0 min 0 W/m 18,4 C 25,7 C 11,5 km/h (2 Bft)
02.07.2009 11:54 26,7 C 61 % 1019,5 hPa 0,0 l/m 8,7 km/h (2 Bft) O-NO 60 0 min 0 W/m 18,5 C 26,3 C 8,7 km/h (2 Bft)
02.07.2009 11:59 26,8 C 61 % 1019,5 hPa 0,0 l/m 12,6 km/h (3 Bft) NO 35 0 min 0 W/m 18,6 C 25,8 C 12,6 km/h (3 Bft)
02.07.2009 12:05 26,8 C 60 % 1019,5 hPa 0,0 l/m 9,8 km/h (2 Bft) NO 45 0 min 0 W/m 18,4 C 26,2 C 9,8 km/h (2 Bft)
02.07.2009 12:09 27,0 C 60 % 1019,5 hPa 0,0 l/m 13,4 km/h (3 Bft) NO 40 0 min 0 W/m 18,6 C 25,9 C 13,4 km/h (3 Bft)
02.07.2009 12:14 27,1 C 59 % 1019,5 hPa 0,0 l/m 12,4 km/h (2 Bft) NO 40 0 min 0 W/m 18,4 C 26,2 C 12,4 km/h (2 Bft)
02.07.2009 12:19 27,2 C 60 % 1019,5 hPa 0,0 l/m 12,7 km/h (3 Bft) N-NO 30 0 min 0 W/m 18,7 C 26,2 C 12,7 km/h (3 Bft)
02.07.2009 12:25 27,2 C 60 % 1019,5 hPa 0,0 l/m 12,2 km/h (2 Bft) N-NO 30 0 min 0 W/m 18,7 C 26,3 C 12,2 km/h (2 Bft)
02.07.2009 12:30 27,2 C 60 % 1019,5 hPa 0,0 l/m 13,2 km/h (3 Bft) N-NO 15 0 min 0 W/m 18,7 C 26,2 C 13,2 km/h (3 Bft)
02.07.2009 12:35 27,2 C 60 % 1019,5 hPa 0,0 l/m 13,2 km/h (3 Bft) N-NO 15 0 min 0 W/m 18,7 C 26,2 C 13,2 km/h (3 Bft)
02.07.2009 12:39 27,1 C 61 % 1019,5 hPa 0,0 l/m 12,1 km/h (2 Bft) NO 45 0 min 0 W/m 18,9 C 26,2 C 12,1 km/h (2 Bft)
02.07.2009 12:44 27,2 C 61 % 1019,5 hPa 0,0 l/m 13,7 km/h (3 Bft) NO 40 0 min 0 W/m 19,0 C 26,1 C 13,7 km/h (3 Bft)
02.07.2009 12:49 27,2 C 61 % 1019,5 hPa 0,0 l/m 15,5 km/h (3 Bft) NO 40 0 min 0 W/m 19,0 C 25,9 C 15,5 km/h (3 Bft)
02.07.2009 12:54 27,2 C 61 % 1019,5 hPa 0,0 l/m 14,7 km/h (3 Bft) N-NO 30 0 min 0 W/m 19,0 C 26,0 C 14,7 km/h (3 Bft)
02.07.2009 13:00 27,1 C 60 % 1018,5 hPa 0,0 l/m 10,6 km/h (2 Bft) NO 40 0 min 0 W/m 18,6 C 26,4 C 10,6 km/h (2 Bft)
02.07.2009 13:05 27,2 C 61 % 1018,5 hPa 0,0 l/m 13,6 km/h (3 Bft) NO 50 0 min 0 W/m 19,0 C 26,1 C 13,6 km/h (3 Bft)
02.07.2009 13:09 27,2 C 61 % 1018,5 hPa 0,0 l/m 11,9 km/h (2 Bft) NO 50 0 min 0 W/m 19,0 C 26,3 C 11,9 km/h (2 Bft)
02.07.2009 13:14 27,5 C 61 % 1018,5 hPa 0,0 l/m 12,5 km/h (2 Bft) N-NO 15 0 min 0 W/m 19,3 C 26,6 C 12,5 km/h (2 Bft)
02.07.2009 13:19 27,7 C 61 % 1018,5 hPa 0,0 l/m 11,5 km/h (2 Bft) N 10 0 min 0 W/m 19,5 C 27,0 C 11,5 km/h (2 Bft)
02.07.2009 13:25 27,7 C 60 % 1018,5 hPa 0,0 l/m 14,5 km/h (3 Bft) N 10 0 min 0 W/m 19,2 C 26,6 C 14,5 km/h (3 Bft)
02.07.2009 13:30 27,6 C 61 % 1018,5 hPa 0,0 l/m 12,4 km/h (2 Bft) N-NO 20 0 min 0 W/m 19,4 C 26,7 C 12,4 km/h (2 Bft)
02.07.2009 13:34 27,4 C 61 % 1018,5 hPa 0,0 l/m 14,6 km/h (3 Bft) N-NO 30 0 min 0 W/m 19,2 C 26,3 C 14,6 km/h (3 Bft)
02.07.2009 13:39 27,4 C 61 % 1018,5 hPa 0,0 l/m 18,5 km/h (3 Bft) N-NO 25 0 min 0 W/m 19,2 C 25,9 C 18,5 km/h (3 Bft)
02.07.2009 13:44 27,5 C 61 % 1018,5 hPa 0,0 l/m 13,6 km/h (3 Bft) N-NO 15 0 min 0 W/m 19,3 C 26,5 C 13,6 km/h (3 Bft)
02.07.2009 13:49 27,5 C 61 % 1018,5 hPa 0,0 l/m 14,0 km/h (3 Bft) N 5 0 min 0 W/m 19,3 C 26,4 C 14,0 km/h (3 Bft)
02.07.2009 13:55 27,6 C 62 % 1018,5 hPa 0,0 l/m 10,9 km/h (2 Bft) NO 35 0 min 0 W/m 19,6 C 26,9 C 10,9 km/h (2 Bft)
02.07.2009 14:00 27,8 C 61 % 1018,5 hPa 0,0 l/m 17,3 km/h (3 Bft) N-NO 20 0 min 0 W/m 19,6 C 26,5 C 17,3 km/h (3 Bft)
02.07.2009 14:04 27,6 C 60 % 1018,5 hPa 0,0 l/m 17,4 km/h (3 Bft) NO 35 0 min 0 W/m 19,1 C 26,2 C 17,4 km/h (3 Bft)
02.07.2009 14:09 27,4 C 60 % 1018,5 hPa 0,0 l/m 16,0 km/h (3 Bft) N-NO 30 0 min 0 W/m 18,9 C 26,1 C 16,0 km/h (3 Bft)
02.07.2009 14:14 27,4 C 60 % 1018,5 hPa 0,0 l/m 15,6 km/h (3 Bft) N 350 0 min 0 W/m 18,9 C 26,2 C 15,6 km/h (3 Bft)
02.07.2009 14:20 27,5 C 61 % 1018,5 hPa 0,0 l/m 16,6 km/h (3 Bft) N-NO 25 0 min 0 W/m 19,3 C 26,2 C 16,6 km/h (3 Bft)
02.07.2009 14:25 27,7 C 60 % 1018,5 hPa 0,0 l/m 19,2 km/h (3 Bft) N 350 0 min 0 W/m 19,2 C 26,2 C 19,2 km/h (3 Bft)
02.07.2009 14:29 27,6 C 60 % 1018,5 hPa 0,0 l/m 16,3 km/h (3 Bft) N-NO 15 0 min 0 W/m 19,1 C 26,3 C 16,3 km/h (3 Bft)
02.07.2009 14:34 27,6 C 59 % 1018,5 hPa 0,0 l/m 15,0 km/h (3 Bft) NO 40 0 min 0 W/m 18,8 C 26,5 C 15,0 km/h (3 Bft)
02.07.2009 14:39 27,4 C 60 % 1018,5 hPa 0,0 l/m 15,9 km/h (3 Bft) N-NO 20 0 min 0 W/m 18,9 C 26,1 C 15,9 km/h (3 Bft)
02.07.2009 14:44 27,3 C 59 % 1018,5 hPa 0,0 l/m 16,8 km/h (3 Bft) NO 50 0 min 0 W/m 18,6 C 25,9 C 16,8 km/h (3 Bft)
02.07.2009 14:50 27,2 C 59 % 1018,5 hPa 0,0 l/m 16,5 km/h (3 Bft) NO 45 0 min 0 W/m 18,5 C 25,8 C 16,5 km/h (3 Bft)
02.07.2009 14:55 27,1 C 60 % 1017,5 hPa 0,0 l/m 20,5 km/h (4 Bft) N 10 0 min 0 W/m 18,6 C 25,3 C 20,5 km/h (4 Bft)
02.07.2009 15:00 27,1 C 60 % 1017,5 hPa 0,0 l/m 17,4 km/h (3 Bft) N-NO 20 0 min 0 W/m 18,6 C 25,6 C 17,4 km/h (3 Bft)
02.07.2009 15:04 27,2 C 60 % 1017,5 hPa 0,0 l/m 17,6 km/h (3 Bft) N-NO 25 0 min 0 W/m 18,7 C 25,7 C 17,6 km/h (3 Bft)
02.07.2009 15:10 27,0 C 60 % 1017,5 hPa 0,0 l/m 19,8 km/h (3 Bft) N-NO 25 0 min 0 W/m 18,6 C 25,3 C 19,8 km/h (3 Bft)
02.07.2009 15:15 27,0 C 61 % 1017,5 hPa 0,0 l/m 16,4 km/h (3 Bft) N-NO 20 0 min 0 W/m 18,8 C 25,6 C 16,4 km/h (3 Bft)
02.07.2009 15:20 27,1 C 61 % 1017,5 hPa 0,0 l/m 18,3 km/h (3 Bft) N 5 0 min 0 W/m 18,9 C 25,5 C 18,3 km/h (3 Bft)
02.07.2009 15:24 27,2 C 60 % 1017,5 hPa 0,0 l/m 20,1 km/h (4 Bft) N-NO 25 0 min 0 W/m 18,7 C 25,5 C 20,1 km/h (4 Bft)
02.07.2009 15:29 27,1 C 59 % 1017,5 hPa 0,0 l/m 20,6 km/h (4 Bft) N-NO 25 0 min 0 W/m 18,4 C 25,3 C 20,6 km/h (4 Bft)
02.07.2009 15:34 27,0 C 59 % 1017,5 hPa 0,0 l/m 18,1 km/h (3 Bft) NO 35 0 min 0 W/m 18,3 C 25,4 C 18,1 km/h (3 Bft)
02.07.2009 15:39 26,9 C 58 % 1017,5 hPa 0,0 l/m 19,1 km/h (3 Bft) N 10 0 min 0 W/m 17,9 C 25,2 C 19,1 km/h (3 Bft)
02.07.2009 15:45 26,8 C 58 % 1017,5 hPa 0,0 l/m 20,0 km/h (4 Bft) N-NO 30 0 min 0 W/m 17,8 C 25,0 C 20,0 km/h (4 Bft)
02.07.2009 15:50 26,7 C 59 % 1017,5 hPa 0,0 l/m 20,1 km/h (4 Bft) N-NO 15 0 min 0 W/m 18,0 C 24,9 C 20,1 km/h (4 Bft)
02.07.2009 15:55 26,4 C 59 % 1017,5 hPa 0,0 l/m 19,8 km/h (3 Bft) NO 35 0 min 0 W/m 17,7 C 24,5 C 19,8 km/h (3 Bft)
02.07.2009 15:59 26,4 C 60 % 1017,5 hPa 0,0 l/m 19,5 km/h (3 Bft) N-NO 20 0 min 0 W/m 18,0 C 24,5 C 19,5 km/h (3 Bft)
02.07.2009 16:05 26,5 C 60 % 1017,5 hPa 0,0 l/m 20,5 km/h (4 Bft) N-NO 20 0 min 0 W/m 18,1 C 24,6 C 20,5 km/h (4 Bft)
02.07.2009 16:10 26,5 C 58 % 1017,5 hPa 0,0 l/m 17,2 km/h (3 Bft) N-NO 15 0 min 0 W/m 17,5 C 24,9 C 17,2 km/h (3 Bft)
02.07.2009 16:15 26,4 C 60 % 1017,5 hPa 0,0 l/m 16,6 km/h (3 Bft) N-NO 15 0 min 0 W/m 18,0 C 24,8 C 16,6 km/h (3 Bft)
02.07.2009 16:19 26,5 C 59 % 1017,5 hPa 0,0 l/m 16,5 km/h (3 Bft) N-NO 20 0 min 0 W/m 17,8 C 25,0 C 16,5 km/h (3 Bft)
02.07.2009 16:24 26,5 C 59 % 1017,5 hPa 0,0 l/m 20,1 km/h (4 Bft) N-NO 30 0 min 0 W/m 17,8 C 24,6 C 20,1 km/h (4 Bft)
02.07.2009 16:29 26,3 C 58 % 1017,5 hPa 0,0 l/m 16,6 km/h (3 Bft) NO 40 0 min 0 W/m 17,4 C 24,7 C 16,6 km/h (3 Bft)
02.07.2009 16:34 26,1 C 59 % 1017,5 hPa 0,0 l/m 16,8 km/h (3 Bft) N-NO 15 0 min 0 W/m 17,4 C 24,4 C 16,8 km/h (3 Bft)
02.07.2009 16:40 26,0 C 58 % 1017,5 hPa 0,0 l/m 19,0 km/h (3 Bft) N-NO 25 0 min 0 W/m 17,1 C 24,1 C 19,0 km/h (3 Bft)
02.07.2009 16:44 25,9 C 59 % 1017,5 hPa 0,0 l/m 15,2 km/h (3 Bft) N-NO 25 0 min 0 W/m 17,3 C 24,4 C 15,2 km/h (3 Bft)
02.07.2009 16:49 25,9 C 60 % 1017,5 hPa 0,0 l/m 18,8 km/h (3 Bft) N-NO 20 0 min 0 W/m 17,5 C 24,0 C 18,8 km/h (3 Bft)
02.07.2009 16:54 25,9 C 60 % 1017,5 hPa 0,0 l/m 19,0 km/h (3 Bft) N-NO 25 0 min 0 W/m 17,5 C 23,9 C 19,0 km/h (3 Bft)
02.07.2009 16:59 25,8 C 60 % 1016,5 hPa 0,0 l/m 12,6 km/h (3 Bft) N-NO 25 0 min 0 W/m 17,4 C 24,6 C 12,6 km/h (3 Bft)
02.07.2009 17:05 25,7 C 60 % 1016,5 hPa 0,0 l/m 20,1 km/h (4 Bft) N-NO 15 0 min 0 W/m 17,3 C 23,6 C 20,1 km/h (4 Bft)
02.07.2009 17:09 25,6 C 60 % 1016,5 hPa 0,0 l/m 23,4 km/h (4 Bft) N-NO 25 0 min 0 W/m 17,2 C 23,1 C 23,4 km/h (4 Bft)
02.07.2009 17:14 25,7 C 61 % 1016,5 hPa 0,0 l/m 19,8 km/h (3 Bft) NO 35 0 min 0 W/m 17,6 C 23,6 C 19,8 km/h (3 Bft)
02.07.2009 17:19 25,6 C 61 % 1016,5 hPa 0,0 l/m 13,0 km/h (3 Bft) NO 35 0 min 0 W/m 17,5 C 24,3 C 13,0 km/h (3 Bft)
02.07.2009 17:24 25,5 C 61 % 1016,5 hPa 0,0 l/m 19,3 km/h (3 Bft) NO 40 0 min 0 W/m 17,4 C 23,4 C 19,3 km/h (3 Bft)
02.07.2009 17:30 25,4 C 62 % 1016,5 hPa 0,0 l/m 19,6 km/h (3 Bft) NO 45 0 min 0 W/m 17,6 C 23,2 C 19,6 km/h (3 Bft)
02.07.2009 17:35 25,2 C 63 % 1016,5 hPa 0,0 l/m 20,0 km/h (4 Bft) NO 35 0 min 0 W/m 17,6 C 22,9 C 20,0 km/h (4 Bft)
02.07.2009 17:39 24,9 C 64 % 1016,5 hPa 0,0 l/m 23,3 km/h (4 Bft) N-NO 30 0 min 0 W/m 17,6 C 22,2 C 23,3 km/h (4 Bft)
02.07.2009 17:44 24,8 C 64 % 1016,5 hPa 0,0 l/m 19,2 km/h (3 Bft) N-NO 25 0 min 0 W/m 17,5 C 22,5 C 19,2 km/h (3 Bft)
02.07.2009 17:49 24,8 C 65 % 1016,5 hPa 0,0 l/m 19,1 km/h (3 Bft) NO 35 0 min 0 W/m 17,8 C 22,5 C 19,1 km/h (3 Bft)
02.07.2009 17:54 24,8 C 65 % 1016,5 hPa 0,0 l/m 17,3 km/h (3 Bft) N-NO 20 0 min 0 W/m 17,8 C 22,7 C 17,3 km/h (3 Bft)
02.07.2009 17:59 24,7 C 65 % 1016,5 hPa 0,0 l/m 19,8 km/h (3 Bft) N-NO 25 0 min 0 W/m 17,7 C 22,3 C 19,8 km/h (3 Bft)
02.07.2009 18:05 24,6 C 66 % 1016,5 hPa 0,0 l/m 20,3 km/h (4 Bft) N-NO 20 0 min 0 W/m 17,8 C 22,1 C 20,3 km/h (4 Bft)
02.07.2009 18:09 24,4 C 65 % 1016,5 hPa 0,0 l/m 21,3 km/h (4 Bft) N-NO 25 0 min 0 W/m 17,4 C 21,7 C 21,3 km/h (4 Bft)
02.07.2009 18:14 24,3 C 67 % 1016,5 hPa 0,0 l/m 15,6 km/h (3 Bft) N-NO 20 0 min 0 W/m 17,8 C 22,4 C 15,6 km/h (3 Bft)
02.07.2009 18:19 24,3 C 67 % 1016,5 hPa 0,0 l/m 21,6 km/h (4 Bft) N-NO 15 0 min 0 W/m 17,8 C 21,6 C 21,6 km/h (4 Bft)
02.07.2009 18:25 24,2 C 67 % 1016,5 hPa 0,0 l/m 22,3 km/h (4 Bft) N 5 0 min 0 W/m 17,7 C 21,4 C 22,3 km/h (4 Bft)
02.07.2009 18:30 24,0 C 67 % 1016,5 hPa 0,0 l/m 19,8 km/h (3 Bft) NO 35 0 min 0 W/m 17,5 C 21,4 C 19,8 km/h (3 Bft)
02.07.2009 18:35 23,9 C 68 % 1016,5 hPa 0,0 l/m 19,5 km/h (3 Bft) N-NO 20 0 min 0 W/m 17,6 C 21,3 C 19,5 km/h (3 Bft)
02.07.2009 18:39 23,6 C 68 % 1016,5 hPa 0,0 l/m 22,1 km/h (4 Bft) N-NO 20 0 min 0 W/m 17,3 C 20,6 C 22,1 km/h (4 Bft)
02.07.2009 18:44 23,5 C 69 % 1016,5 hPa 0,0 l/m 18,5 km/h (3 Bft) N-NO 25 0 min 0 W/m 17,5 C 20,9 C 18,5 km/h (3 Bft)
02.07.2009 18:49 23,4 C 69 % 1016,5 hPa 0,0 l/m 21,8 km/h (4 Bft) N-NO 20 0 min 0 W/m 17,4 C 20,4 C 21,8 km/h (4 Bft)
02.07.2009 18:54 23,3 C 69 % 1016,5 hPa 0,0 l/m 19,6 km/h (3 Bft) N-NO 25 0 min 0 W/m 17,3 C 20,5 C 19,6 km/h (3 Bft)
02.07.2009 19:00 23,1 C 69 % 1016,5 hPa 0,0 l/m 20,8 km/h (4 Bft) N 10 0 min 0 W/m 17,1 C 20,1 C 20,8 km/h (4 Bft)
02.07.2009 19:04 23,1 C 69 % 1016,5 hPa 0,0 l/m 19,3 km/h (3 Bft) NO 45 0 min 0 W/m 17,1 C 20,3 C 19,3 km/h (3 Bft)
02.07.2009 19:09 23,0 C 69 % 1016,5 hPa 0,0 l/m 18,0 km/h (3 Bft) N-NO 30 0 min 0 W/m 17,0 C 20,4 C 18,0 km/h (3 Bft)
02.07.2009 19:14 23,0 C 69 % 1016,5 hPa 0,0 l/m 16,5 km/h (3 Bft) N-NO 25 0 min 0 W/m 17,0 C 20,6 C 16,5 km/h (3 Bft)
02.07.2009 19:20 22,9 C 69 % 1016,5 hPa 0,0 l/m 17,5 km/h (3 Bft) N-NO 20 0 min 0 W/m 16,9 C 20,3 C 17,5 km/h (3 Bft)
02.07.2009 19:25 22,8 C 70 % 1016,5 hPa 0,0 l/m 16,6 km/h (3 Bft) NO 35 0 min 0 W/m 17,0 C 20,4 C 16,6 km/h (3 Bft)
02.07.2009 19:29 22,7 C 70 % 1016,5 hPa 0,0 l/m 21,6 km/h (4 Bft) N-NO 15 0 min 0 W/m 16,9 C 19,5 C 21,6 km/h (4 Bft)
02.07.2009 19:34 22,5 C 71 % 1016,5 hPa 0,0 l/m 17,0 km/h (3 Bft) N-NO 30 0 min 0 W/m 17,0 C 19,9 C 17,0 km/h (3 Bft)
02.07.2009 19:39 22,5 C 71 % 1016,5 hPa 0,0 l/m 19,8 km/h (3 Bft) N 10 0 min 0 W/m 17,0 C 19,5 C 19,8 km/h (3 Bft)
02.07.2009 19:44 22,4 C 72 % 1016,5 hPa 0,0 l/m 16,3 km/h (3 Bft) N-NO 30 0 min 0 W/m 17,1 C 19,9 C 16,3 km/h (3 Bft)
02.07.2009 19:50 22,3 C 72 % 1016,5 hPa 0,0 l/m 16,5 km/h (3 Bft) N-NO 25 0 min 0 W/m 17,0 C 19,8 C 16,5 km/h (3 Bft)
02.07.2009 19:55 22,2 C 72 % 1016,5 hPa 0,0 l/m 14,8 km/h (3 Bft) N-NO 25 0 min 0 W/m 16,9 C 20,0 C 14,8 km/h (3 Bft)
02.07.2009 20:00 22,1 C 73 % 1016,5 hPa 0,0 l/m 17,7 km/h (3 Bft) N-NO 30 0 min 0 W/m 17,0 C 19,3 C 17,7 km/h (3 Bft)
02.07.2009 20:04 22,0 C 74 % 1015,5 hPa 0,0 l/m 19,0 km/h (3 Bft) N-NO 15 0 min 0 W/m 17,1 C 18,9 C 19,0 km/h (3 Bft)
02.07.2009 20:09 21,9 C 74 % 1015,5 hPa 0,0 l/m 14,1 km/h (3 Bft) NO 35 0 min 0 W/m 17,0 C 19,7 C 14,1 km/h (3 Bft)
02.07.2009 20:15 21,9 C 74 % 1015,5 hPa 0,0 l/m 20,0 km/h (4 Bft) NO 35 0 min 0 W/m 17,0 C 18,7 C 20,0 km/h (4 Bft)
02.07.2009 20:20 21,8 C 74 % 1015,5 hPa 0,0 l/m 13,4 km/h (3 Bft) N-NO 20 0 min 0 W/m 17,0 C 19,8 C 13,4 km/h (3 Bft)
02.07.2009 20:24 21,8 C 74 % 1015,5 hPa 0,0 l/m 13,3 km/h (3 Bft) N-NO 30 0 min 0 W/m 17,0 C 19,8 C 13,3 km/h (3 Bft)
02.07.2009 20:29 21,8 C 74 % 1015,5 hPa 0,0 l/m 15,1 km/h (3 Bft) NO 35 0 min 0 W/m 17,0 C 19,4 C 15,1 km/h (3 Bft)
02.07.2009 20:34 21,6 C 75 % 1015,5 hPa 0,0 l/m 14,1 km/h (3 Bft) NO 35 0 min 0 W/m 17,0 C 19,4 C 14,1 km/h (3 Bft)
02.07.2009 20:39 21,6 C 76 % 1015,5 hPa 0,0 l/m 17,8 km/h (3 Bft) N-NO 30 0 min 0 W/m 17,2 C 18,6 C 17,8 km/h (3 Bft)
02.07.2009 20:45 21,6 C 76 % 1015,5 hPa 0,0 l/m 11,9 km/h (2 Bft) NO 40 0 min 0 W/m 17,2 C 19,9 C 11,9 km/h (2 Bft)
02.07.2009 20:50 21,5 C 76 % 1015,5 hPa 0,0 l/m 15,8 km/h (3 Bft) NO 35 0 min 0 W/m 17,1 C 18,9 C 15,8 km/h (3 Bft)
02.07.2009 20:55 21,2 C 77 % 1015,5 hPa 0,0 l/m 14,2 km/h (3 Bft) NO 40 0 min 0 W/m 17,0 C 18,9 C 14,2 km/h (3 Bft)
02.07.2009 20:59 21,2 C 77 % 1015,5 hPa 0,0 l/m 8,8 km/h (2 Bft) N-NO 20 0 min 0 W/m 17,0 C 20,3 C 8,8 km/h (2 Bft)
02.07.2009 21:05 21,2 C 78 % 1015,5 hPa 0,0 l/m 12,7 km/h (3 Bft) NO 35 0 min 0 W/m 17,2 C 19,2 C 12,7 km/h (3 Bft)
02.07.2009 21:10 21,0 C 78 % 1015,5 hPa 0,0 l/m 13,8 km/h (3 Bft) NO 45 0 min 0 W/m 17,0 C 18,7 C 13,8 km/h (3 Bft)
02.07.2009 21:15 21,0 C 79 % 1015,5 hPa 0,0 l/m 13,2 km/h (3 Bft) NO 40 0 min 0 W/m 17,2 C 18,9 C 13,2 km/h (3 Bft)
02.07.2009 21:19 21,0 C 79 % 1015,5 hPa 0,0 l/m 11,7 km/h (2 Bft) NO 40 0 min 0 W/m 17,2 C 19,3 C 11,7 km/h (2 Bft)
02.07.2009 21:24 20,9 C 79 % 1015,5 hPa 0,0 l/m 13,0 km/h (3 Bft) NO 40 0 min 0 W/m 17,1 C 18,8 C 13,0 km/h (3 Bft)
02.07.2009 21:29 20,8 C 80 % 1015,5 hPa 0,0 l/m 12,6 km/h (3 Bft) NO 40 0 min 0 W/m 17,2 C 18,8 C 12,6 km/h (3 Bft)
02.07.2009 21:34 20,7 C 81 % 1015,5 hPa 0,0 l/m 14,4 km/h (3 Bft) NO 55 0 min 0 W/m 17,3 C 18,2 C 14,4 km/h (3 Bft)
02.07.2009 21:40 20,7 C 81 % 1015,5 hPa 0,0 l/m 9,7 km/h (2 Bft) NO 35 0 min 0 W/m 17,3 C 19,5 C 9,7 km/h (2 Bft)
02.07.2009 21:45 20,7 C 81 % 1015,5 hPa 0,0 l/m 8,9 km/h (2 Bft) N-NO 30 0 min 0 W/m 17,3 C 19,8 C 8,9 km/h (2 Bft)
02.07.2009 21:49 20,7 C 81 % 1015,5 hPa 0,0 l/m 11,4 km/h (2 Bft) N-NO 20 0 min 0 W/m 17,3 C 19,0 C 11,4 km/h (2 Bft)
02.07.2009 21:54 20,7 C 81 % 1015,5 hPa 0,0 l/m 10,1 km/h (2 Bft) NO 45 0 min 0 W/m 17,3 C 19,4 C 10,1 km/h (2 Bft)
02.07.2009 21:59 20,7 C 81 % 1015,5 hPa 0,0 l/m 9,9 km/h (2 Bft) N-NO 20 0 min 0 W/m 17,3 C 19,4 C 9,9 km/h (2 Bft)
02.07.2009 22:04 20,7 C 81 % 1015,5 hPa 0,0 l/m 6,5 km/h (2 Bft) N-NO 15 0 min 0 W/m 17,3 C 20,7 C 6,5 km/h (2 Bft)
02.07.2009 22:09 20,7 C 82 % 1015,5 hPa 0,0 l/m 0,4 km/h (0 Bft) N 360 0 min 0 W/m 17,5 C 20,7 C 0,4 km/h (0 Bft)
02.07.2009 22:14 20,6 C 82 % 1015,5 hPa 0,0 l/m 6,0 km/h (2 Bft) N-NO 30 0 min 0 W/m 17,4 C 20,6 C 6,0 km/h (2 Bft)
02.07.2009 22:19 20,5 C 82 % 1015,5 hPa 0,0 l/m 7,9 km/h (2 Bft) N 360 0 min 0 W/m 17,3 C 19,9 C 7,9 km/h (2 Bft)
02.07.2009 22:24 20,4 C 82 % 1015,5 hPa 0,0 l/m 5,5 km/h (2 Bft) N-NO 25 0 min 0 W/m 17,2 C 20,4 C 5,5 km/h (2 Bft)
02.07.2009 22:30 20,4 C 82 % 1016,5 hPa 0,0 l/m 0,7 km/h (0 Bft) NO 40 0 min 0 W/m 17,2 C 20,4 C 0,7 km/h (0 Bft)
02.07.2009 22:35 20,4 C 83 % 1015,5 hPa 0,0 l/m 0,8 km/h (0 Bft) O-NO 60 0 min 0 W/m 17,4 C 20,4 C 0,8 km/h (0 Bft)
02.07.2009 22:40 20,5 C 82 % 1015,5 hPa 0,0 l/m 0,6 km/h (0 Bft) NO 55 0 min 0 W/m 17,3 C 20,5 C 0,6 km/h (0 Bft)
02.07.2009 22:44 20,5 C 82 % 1015,5 hPa 0,0 l/m 4,4 km/h (1 Bft) N-NO 30 0 min 0 W/m 17,3 C 20,5 C 4,4 km/h (1 Bft)
02.07.2009 22:49 20,4 C 82 % 1015,5 hPa 0,0 l/m 4,3 km/h (1 Bft) N-NO 15 0 min 0 W/m 17,2 C 20,4 C 4,3 km/h (1 Bft)
02.07.2009 22:54 20,3 C 82 % 1015,5 hPa 0,0 l/m 6,7 km/h (2 Bft) N-NO 25 0 min 0 W/m 17,1 C 20,2 C 6,7 km/h (2 Bft)
02.07.2009 22:59 20,2 C 82 % 1015,5 hPa 0,0 l/m 6,3 km/h (2 Bft) N-NO 15 0 min 0 W/m 17,0 C 20,2 C 6,3 km/h (2 Bft)
02.07.2009 23:05 20,2 C 83 % 1015,5 hPa 0,0 l/m 7,0 km/h (2 Bft) N-NO 20 0 min 0 W/m 17,2 C 20,0 C 7,0 km/h (2 Bft)
02.07.2009 23:09 20,2 C 83 % 1015,5 hPa 0,0 l/m 5,9 km/h (2 Bft) N-NO 30 0 min 0 W/m 17,2 C 20,2 C 5,9 km/h (2 Bft)
02.07.2009 23:14 20,2 C 83 % 1015,5 hPa 0,0 l/m 0,7 km/h (0 Bft) N 5 0 min 0 W/m 17,2 C 20,2 C 0,7 km/h (0 Bft)
02.07.2009 23:20 20,2 C 83 % 1015,5 hPa 0,0 l/m 4,3 km/h (1 Bft) N 5 0 min 0 W/m 17,2 C 20,2 C 4,3 km/h (1 Bft)
02.07.2009 23:25 20,3 C 83 % 1015,5 hPa 0,0 l/m 5,6 km/h (2 Bft) N-NO 20 0 min 0 W/m 17,3 C 20,3 C 5,6 km/h (2 Bft)
02.07.2009 23:30 20,3 C 83 % 1015,5 hPa 0,0 l/m 5,4 km/h (2 Bft) N-NO 25 0 min 0 W/m 17,3 C 20,3 C 5,4 km/h (2 Bft)
02.07.2009 23:34 20,2 C 83 % 1015,5 hPa 0,0 l/m 3,1 km/h (1 Bft) NO 55 0 min 0 W/m 17,2 C 20,2 C 3,1 km/h (1 Bft)
02.07.2009 23:39 20,3 C 83 % 1015,5 hPa 0,0 l/m 0,6 km/h (0 Bft) NO 55 0 min 0 W/m 17,3 C 20,3 C 0,6 km/h (0 Bft)
02.07.2009 23:44 20,3 C 83 % 1015,5 hPa 0,0 l/m 2,4 km/h (1 Bft) NO 55 0 min 0 W/m 17,3 C 20,3 C 2,4 km/h (1 Bft)
02.07.2009 23:50 20,2 C 84 % 1015,5 hPa 0,0 l/m 0,2 km/h (0 Bft) N-NO 15 0 min 0 W/m 17,4 C 20,2 C 0,2 km/h (0 Bft)
02.07.2009 23:55 20,2 C 84 % 1015,5 hPa 0,0 l/m 0,0 km/h (0 Bft) N-NO 25 0 min 0 W/m 17,4 C 20,2 C 0,0 km/h (0 Bft)
02.07.2009 23:59 20,2 C 84 % 1015,5 hPa 0,0 l/m 0,0 km/h (0 Bft) N-NO 15 0 min 0 W/m 17,4 C 20,2 C 0,0 km/h (0 Bft)
_ Min-Zeit 05:19 15:39 20:04 - 23:55 - - - - 06:09 05:35 23:55
Minimum _ 17,6 C 58 % 1015,5 hPa - 0,0 km/h (0 Bft) - - - - 14,8 C 15,8 C 0,0 km/h (0 Bft)
_ Max-Zeit 14:00 00:30 00:00 00:00 17:09 - - 00:00 00:00 13:55 13:19 17:09
Maximum _ 27,8 C 86 % 1020,5 hPa 0,0 l/m 23,4 km/h
N-NO (4 Bft)
- - 0 min 0 W/m 19,6 C 27,0 C 23,4 km/h
N-NO (4 Bft)
Durchschnitt _ 22,2 C 74 % 1018,3 hPa #0,0 l/m 11,2 km/h (2 Bft) N-NO - #0 min. 0 W/m 17,1 C 21,1 C 11,2 km/h (2 Bft)
copyright by Holger Just